DLH999 EDDF-LFPG

Flight info

Callsign DLH999
Flight time 1h 0m
Altitude 30000
Route SOBRA2L SOBRA Y180 NISIV DCT IDOSA/N0416F180 Y180 TILVI Q763 RAPOR DCT VEDUS
Aircraft A359/H-SDE2E3GHIJ3J4J5LM1ORWXY/LB1D1

Departure

Time 2026-05-08 19:44
Airport Frankfurt Main Airport (EDDF)

Arrival

Time 2026-05-08 20:44
Airport Charles de Gaulle International Airport (LFPG)
Time Latitude Longitude Altitude Speed Heading
2026-05-08 19:10 50.03891 8.54881 369 ft 0 kts 161°
2026-05-08 19:37 50.03881 8.54886 367 ft 4 kts 161°
2026-05-08 19:37 50.03837 8.54909 368 ft 9 kts 164°
2026-05-08 19:37 50.03792 8.54876 369 ft 7 kts 242°
2026-05-08 19:38 50.03777 8.54789 367 ft 10 kts 255°
2026-05-08 19:38 50.03749 8.54673 371 ft 13 kts 248°
2026-05-08 19:38 50.03709 8.54525 368 ft 16 kts 246°
2026-05-08 19:38 50.03664 8.54346 371 ft 19 kts 250°
2026-05-08 19:39 50.03614 8.54138 369 ft 22 kts 248°
2026-05-08 19:39 50.03556 8.53902 366 ft 25 kts 250°
2026-05-08 19:39 50.03495 8.53637 368 ft 27 kts 250°
2026-05-08 19:39 50.03428 8.53348 370 ft 29 kts 250°
2026-05-08 19:40 50.03356 8.53054 369 ft 29 kts 249°
2026-05-08 19:40 50.03305 8.52840 370 ft 16 kts 248°
2026-05-08 19:40 50.03289 8.52776 372 ft 0 kts 249°
2026-05-08 19:41 50.03286 8.52761 370 ft 3 kts 249°
2026-05-08 19:41 50.03273 8.52711 369 ft 7 kts 249°
2026-05-08 19:42 50.03235 8.52618 371 ft 15 kts 217°
2026-05-08 19:42 50.03114 8.52597 366 ft 20 kts 179°
2026-05-08 19:42 50.02990 8.52598 366 ft 7 kts 179°
2026-05-08 19:42 50.02975 8.52598 366 ft 0 kts 179°
2026-05-08 19:43 50.02974 8.52598 366 ft 3 kts 179°
2026-05-08 19:43 50.02731 8.52602 370 ft 74 kts 179°
2026-05-08 19:43 50.01962 8.52609 371 ft 145 kts 180°
2026-05-08 19:44 50.00751 8.52594 633 ft 185 kts 181°
2026-05-08 19:44 49.99493 8.52622 1555 ft 179 kts 175°
2026-05-08 19:44 49.98252 8.52722 2459 ft 185 kts 174°
2026-05-08 19:44 49.96869 8.52847 2859 ft 213 kts 175°
2026-05-08 19:45 49.95319 8.52969 3456 ft 229 kts 175°
2026-05-08 19:45 49.93716 8.53082 4117 ft 232 kts 176°
2026-05-08 19:45 49.92099 8.53190 5095 ft 233 kts 177°
2026-05-08 19:45 49.90477 8.53300 6082 ft 234 kts 178°
2026-05-08 19:46 49.88839 8.53407 7045 ft 236 kts 179°
2026-05-08 19:46 49.87188 8.53302 7975 ft 239 kts 192°
2026-05-08 19:46 49.83797 8.51567 9359 ft 273 kts 202°
2026-05-08 19:47 49.81996 8.50515 10322 ft 279 kts 202°
2026-05-08 19:47 49.80108 8.49424 10866 ft 302 kts 201°
2026-05-08 19:47 49.78165 8.47981 11218 ft 327 kts 214°
2026-05-08 19:47 49.76556 8.45395 11782 ft 342 kts 239°
2026-05-08 19:48 49.75766 8.41861 12660 ft 350 kts 262°
2026-05-08 19:48 49.75954 8.38125 13511 ft 360 kts 285°
2026-05-08 19:48 49.76835 8.34415 14322 ft 366 kts 288°
2026-05-08 19:48 49.77585 8.30640 15146 ft 369 kts 284°
2026-05-08 19:49 49.78255 8.26793 16013 ft 372 kts 283°
2026-05-08 19:49 49.78896 8.22947 16846 ft 375 kts 283°
2026-05-08 19:49 49.79549 8.18965 17718 ft 379 kts 283°
2026-05-08 19:49 49.80190 8.14983 18560 ft 383 kts 283°
2026-05-08 19:50 49.80825 8.11009 19319 ft 387 kts 283°
2026-05-08 19:50 49.81473 8.06941 20106 ft 391 kts 283°
2026-05-08 19:50 49.82127 8.02821 20876 ft 396 kts 283°
2026-05-08 19:50 49.82790 7.98654 21646 ft 400 kts 283°
2026-05-08 19:51 49.83451 7.94454 22401 ft 404 kts 282°
2026-05-08 19:51 49.84119 7.90187 23164 ft 409 kts 282°
2026-05-08 19:51 49.84791 7.85887 23799 ft 413 kts 282°
2026-05-08 19:51 49.85467 7.81552 24058 ft 414 kts 282°
2026-05-08 19:52 49.86142 7.77219 24109 ft 415 kts 282°
2026-05-08 19:52 49.86826 7.72865 24109 ft 416 kts 283°
2026-05-08 19:52 49.87288 7.68548 24275 ft 418 kts 274°
2026-05-08 19:52 49.87312 7.64038 24856 ft 421 kts 267°
2026-05-08 19:53 49.87144 7.59482 25550 ft 423 kts 265°
2026-05-08 19:53 49.86876 7.54926 26210 ft 426 kts 263°
2026-05-08 19:53 49.86554 7.50341 26802 ft 430 kts 263°
2026-05-08 19:53 49.86210 7.45711 27411 ft 434 kts 263°
2026-05-08 19:54 49.85863 7.41053 28014 ft 438 kts 263°
2026-05-08 19:54 49.85517 7.36330 28608 ft 442 kts 263°
2026-05-08 19:54 49.85176 7.31582 29173 ft 446 kts 263°
2026-05-08 19:54 49.84835 7.26771 29727 ft 450 kts 263°
2026-05-08 19:55 49.84493 7.21929 30061 ft 455 kts 263°
2026-05-08 19:55 49.84151 7.17072 30106 ft 465 kts 264°
2026-05-08 19:55 49.83435 7.07010 30106 ft 471 kts 264°
2026-05-08 19:56 49.82707 6.96925 30105 ft 471 kts 264°
2026-05-08 19:56 49.81969 6.86850 30092 ft 471 kts 264°
2026-05-08 19:57 49.81222 6.76761 30092 ft 472 kts 264°
2026-05-08 19:57 49.80465 6.66671 30086 ft 472 kts 264°
2026-05-08 19:58 49.79699 6.56570 30091 ft 473 kts 264°
2026-05-08 19:58 49.78924 6.46480 30091 ft 473 kts 264°
2026-05-08 19:59 49.78136 6.36345 30100 ft 473 kts 264°
2026-05-08 19:59 49.77346 6.26281 30099 ft 474 kts 264°
2026-05-08 20:00 49.76543 6.16164 30101 ft 474 kts 264°
2026-05-08 20:00 49.75730 6.06049 30099 ft 474 kts 264°
2026-05-08 20:01 49.74905 5.95924 30098 ft 474 kts 264°
2026-05-08 20:01 49.73191 5.86060 30099 ft 478 kts 248°
2026-05-08 20:02 49.69857 5.77125 30097 ft 482 kts 237°
2026-05-08 20:02 49.67922 5.72955 30098 ft 471 kts 236°
2026-05-08 20:02 49.65988 5.68982 30103 ft 453 kts 235°
2026-05-08 20:03 49.64134 5.65152 30102 ft 438 kts 238°
2026-05-08 20:03 49.62566 5.61175 30096 ft 434 kts 245°
2026-05-08 20:03 49.60655 5.52459 30097 ft 428 kts 263°
2026-05-08 20:04 49.60247 5.43352 30092 ft 423 kts 278°
2026-05-08 20:04 49.60876 5.38960 30100 ft 418 kts 290°
2026-05-08 20:04 49.61832 5.34736 30036 ft 418 kts 292°
2026-05-08 20:05 49.62834 5.30537 29759 ft 416 kts 292°
2026-05-08 20:05 49.63837 5.26347 29471 ft 415 kts 292°
2026-05-08 20:05 49.64837 5.22168 29191 ft 414 kts 292°
2026-05-08 20:05 49.65832 5.18014 28910 ft 412 kts 292°
2026-05-08 20:06 49.66826 5.13865 28633 ft 411 kts 292°
2026-05-08 20:06 49.67815 5.09739 28363 ft 410 kts 292°
2026-05-08 20:06 49.68803 5.05622 28100 ft 408 kts 292°
2026-05-08 20:06 49.69788 5.01521 27826 ft 407 kts 292°
2026-05-08 20:07 49.70759 4.97476 27557 ft 406 kts 292°
2026-05-08 20:07 49.71739 4.93393 27291 ft 404 kts 292°
2026-05-08 20:07 49.72714 4.89326 27031 ft 403 kts 292°
2026-05-08 20:07 49.73689 4.85259 26761 ft 402 kts 292°
2026-05-08 20:08 49.74659 4.81217 26515 ft 401 kts 292°
2026-05-08 20:08 49.75630 4.77171 26258 ft 400 kts 292°
2026-05-08 20:08 49.76610 4.73093 26107 ft 399 kts 292°
2026-05-08 20:08 49.77564 4.69118 26097 ft 399 kts 292°
2026-05-08 20:09 49.78528 4.65100 26098 ft 399 kts 292°
2026-05-08 20:09 49.79748 4.61331 26103 ft 383 kts 305°
2026-05-08 20:09 49.81352 4.58154 26106 ft 368 kts 313°
2026-05-08 20:09 49.83027 4.55200 26103 ft 365 kts 313°
2026-05-08 20:10 49.84732 4.52221 26102 ft 365 kts 313°
2026-05-08 20:10 49.86319 4.49210 26100 ft 366 kts 307°
2026-05-08 20:10 49.87586 4.45780 26102 ft 369 kts 296°
2026-05-08 20:10 49.88350 4.41963 26101 ft 373 kts 283°
2026-05-08 20:11 49.88485 4.37936 26100 ft 378 kts 268°
2026-05-08 20:11 49.87923 4.33932 26102 ft 384 kts 252°
2026-05-08 20:11 49.86642 4.30269 26101 ft 391 kts 237°
2026-05-08 20:11 49.84927 4.26872 26025 ft 411 kts 233°
2026-05-08 20:12 49.83096 4.23411 25732 ft 417 kts 233°
2026-05-08 20:12 49.81260 4.19930 25431 ft 417 kts 233°
2026-05-08 20:12 49.79434 4.16446 25141 ft 416 kts 233°
2026-05-08 20:12 49.77622 4.12975 24845 ft 413 kts 233°
2026-05-08 20:13 49.75825 4.09527 24569 ft 411 kts 233°
2026-05-08 20:13 49.74033 4.06089 24280 ft 410 kts 233°
2026-05-08 20:13 49.72111 4.02842 23992 ft 410 kts 221°
2026-05-08 20:13 49.69683 4.00549 23720 ft 411 kts 203°
2026-05-08 20:14 49.66920 3.99501 23401 ft 409 kts 186°
2026-05-08 20:14 49.64088 3.99217 23076 ft 408 kts 182°
2026-05-08 20:14 49.61261 3.99049 22743 ft 406 kts 182°
2026-05-08 20:14 49.58446 3.98896 22414 ft 403 kts 182°
2026-05-08 20:15 49.55651 3.98747 22093 ft 401 kts 182°
2026-05-08 20:15 49.52870 3.98601 21774 ft 398 kts 182°
2026-05-08 20:15 49.50115 3.98355 21452 ft 395 kts 187°
2026-05-08 20:15 49.47445 3.97436 20963 ft 392 kts 200°
2026-05-08 20:16 49.45058 3.95534 20557 ft 384 kts 217°
2026-05-08 20:16 49.43163 3.92715 20099 ft 378 kts 234°
2026-05-08 20:16 49.41927 3.89208 19615 ft 372 kts 251°
2026-05-08 20:16 49.41413 3.85356 19218 ft 367 kts 269°
2026-05-08 20:17 49.41525 3.81452 19096 ft 366 kts 275°
2026-05-08 20:17 49.41686 3.77542 19069 ft 367 kts 273°
2026-05-08 20:17 49.41790 3.73628 18851 ft 367 kts 272°
2026-05-08 20:17 49.41853 3.69705 18317 ft 366 kts 271°
2026-05-08 20:18 49.41889 3.65817 17806 ft 362 kts 270°
2026-05-08 20:18 49.41910 3.62013 17317 ft 359 kts 270°
2026-05-08 20:18 49.41923 3.58204 16806 ft 355 kts 270°
2026-05-08 20:18 49.41730 3.54438 16331 ft 352 kts 259°
2026-05-08 20:19 49.41090 3.50836 15998 ft 349 kts 251°
2026-05-08 20:19 49.40296 3.47310 15731 ft 349 kts 250°
2026-05-08 20:19 49.39752 3.44987 15570 ft 348 kts 250°
2026-05-08 20:19 49.38643 3.40337 15252 ft 346 kts 249°
2026-05-08 20:20 49.37809 3.36880 14996 ft 345 kts 249°
2026-05-08 20:20 49.37247 3.34558 14837 ft 344 kts 249°
2026-05-08 20:20 49.36422 3.31166 14589 ft 342 kts 249°
2026-05-08 20:20 49.35591 3.27757 14342 ft 341 kts 249°
2026-05-08 20:21 49.34761 3.24361 14115 ft 339 kts 249°
2026-05-08 20:21 49.33933 3.20983 13872 ft 338 kts 249°
2026-05-08 20:21 49.33108 3.17617 13608 ft 336 kts 249°
2026-05-08 20:21 49.32286 3.14272 13344 ft 334 kts 249°
2026-05-08 20:22 49.31467 3.10948 13080 ft 333 kts 249°
2026-05-08 20:22 49.30653 3.07644 12814 ft 331 kts 249°
2026-05-08 20:22 49.29839 3.04349 12551 ft 329 kts 249°
2026-05-08 20:22 49.29030 3.01077 12298 ft 328 kts 249°
2026-05-08 20:23 49.28224 2.97822 12053 ft 326 kts 249°
2026-05-08 20:23 49.27420 2.94587 11796 ft 325 kts 249°
2026-05-08 20:23 49.26618 2.91368 11541 ft 323 kts 249°
2026-05-08 20:23 49.25818 2.88142 11292 ft 322 kts 249°
2026-05-08 20:24 49.25024 2.84939 11109 ft 321 kts 249°
2026-05-08 20:24 49.24348 2.82230 11070 ft 321 kts 249°
2026-05-08 20:24 49.23551 2.79044 11075 ft 321 kts 249°
2026-05-08 20:24 49.22754 2.75860 11077 ft 321 kts 249°
2026-05-08 20:25 49.21957 2.72681 11076 ft 321 kts 249°
2026-05-08 20:25 49.21157 2.69489 11075 ft 321 kts 249°
2026-05-08 20:25 49.20357 2.66306 11072 ft 321 kts 249°
2026-05-08 20:25 49.19556 2.63118 11076 ft 321 kts 249°
2026-05-08 20:26 49.18755 2.59935 11077 ft 321 kts 249°
2026-05-08 20:26 49.18132 2.56701 11056 ft 322 kts 261°
2026-05-08 20:26 49.17955 2.53297 10807 ft 321 kts 268°
2026-05-08 20:26 49.17900 2.49887 10534 ft 320 kts 268°
2026-05-08 20:27 49.17847 2.46494 10248 ft 318 kts 268°
2026-05-08 20:27 49.17787 2.43168 9960 ft 308 kts 268°
2026-05-08 20:27 49.17722 2.39948 9649 ft 299 kts 268°
2026-05-08 20:27 49.17656 2.36815 9394 ft 289 kts 268°
2026-05-08 20:28 49.17536 2.33814 9202 ft 278 kts 264°
2026-05-08 20:28 49.17329 2.30925 9005 ft 269 kts 263°
2026-05-08 20:28 49.17125 2.28141 8807 ft 260 kts 263°
2026-05-08 20:28 49.16941 2.25422 8517 ft 256 kts 265°
2026-05-08 20:29 49.16911 2.22702 8100 ft 257 kts 271°
2026-05-08 20:29 49.16969 2.20026 7669 ft 247 kts 271°
2026-05-08 20:29 49.17038 2.17430 7241 ft 244 kts 271°
2026-05-08 20:29 49.17113 2.14803 6831 ft 248 kts 272°
2026-05-08 20:30 49.17190 2.12152 6419 ft 252 kts 271°
2026-05-08 20:30 49.17269 2.09471 5980 ft 254 kts 272°
2026-05-08 20:30 49.17348 2.06761 5540 ft 256 kts 271°
2026-05-08 20:30 49.17426 2.04019 5109 ft 258 kts 271°
2026-05-08 20:31 49.17502 2.01298 4808 ft 255 kts 271°
2026-05-08 20:31 49.17575 1.98620 4551 ft 249 kts 272°
2026-05-08 20:31 49.17643 1.95999 4301 ft 244 kts 272°
2026-05-08 20:31 49.17705 1.93422 4051 ft 240 kts 271°
2026-05-08 20:32 49.17763 1.90880 3996 ft 240 kts 271°
2026-05-08 20:32 49.17819 1.88324 3992 ft 240 kts 271°
2026-05-08 20:32 49.17842 1.85772 3986 ft 240 kts 266°
2026-05-08 20:32 49.17345 1.83365 3993 ft 238 kts 236°
2026-05-08 20:33 49.16169 1.81702 3993 ft 235 kts 206°
2026-05-08 20:33 49.14611 1.81050 3995 ft 232 kts 185°
2026-05-08 20:33 49.13002 1.80854 3987 ft 232 kts 181°
2026-05-08 20:33 49.11422 1.81265 3999 ft 231 kts 157°
2026-05-08 20:34 49.09965 1.82269 3992 ft 230 kts 152°
2026-05-08 20:34 49.08536 1.83371 3994 ft 230 kts 152°
2026-05-08 20:34 49.05687 1.85586 3991 ft 230 kts 152°
2026-05-08 20:35 49.04262 1.86698 3993 ft 230 kts 152°
2026-05-08 20:35 49.03008 1.88161 3994 ft 229 kts 127°
2026-05-08 20:35 49.02229 1.90255 3994 ft 227 kts 113°
2026-05-08 20:35 49.01612 1.92474 3994 ft 227 kts 112°
2026-05-08 20:36 49.01028 1.94667 3994 ft 228 kts 111°
2026-05-08 20:36 49.00425 1.96936 3991 ft 227 kts 111°
2026-05-08 20:36 48.99946 1.99218 3991 ft 227 kts 101°
2026-05-08 20:36 48.99810 2.01623 3992 ft 227 kts 89°
2026-05-08 20:37 48.99902 2.04032 3995 ft 228 kts 85°
2026-05-08 20:37 49.00040 2.06434 3993 ft 228 kts 85°
2026-05-08 20:37 49.00172 2.08844 3990 ft 228 kts 85°
2026-05-08 20:37 49.00297 2.11249 3990 ft 228 kts 86°
2026-05-08 20:38 49.00422 2.13658 3990 ft 228 kts 86°
2026-05-08 20:38 49.00547 2.16033 3992 ft 228 kts 86°
2026-05-08 20:38 49.00675 2.18446 3987 ft 220 kts 85°
2026-05-08 20:38 49.00793 2.20681 3997 ft 204 kts 86°
2026-05-08 20:39 49.00902 2.22721 4056 ft 188 kts 86°
2026-05-08 20:39 49.01005 2.24684 4018 ft 185 kts 86°
2026-05-08 20:39 49.01108 2.26637 3811 ft 185 kts 86°
2026-05-08 20:39 49.01212 2.28612 3528 ft 184 kts 85°
2026-05-08 20:40 49.01313 2.30517 3265 ft 182 kts 85°
2026-05-08 20:40 49.01415 2.32438 3011 ft 181 kts 85°
2026-05-08 20:40 49.01516 2.34348 2778 ft 181 kts 85°
2026-05-08 20:40 49.01616 2.36248 2520 ft 180 kts 85°
2026-05-08 20:41 49.01716 2.38132 2280 ft 178 kts 85°
2026-05-08 20:41 49.01815 2.40007 2035 ft 176 kts 85°
2026-05-08 20:41 49.01912 2.41840 1816 ft 170 kts 85°
2026-05-08 20:41 49.02002 2.43569 1586 ft 156 kts 84°
2026-05-08 20:42 49.02088 2.45136 1368 ft 141 kts 84°
2026-05-08 20:42 49.02174 2.46609 1190 ft 138 kts 84°
2026-05-08 20:42 49.02247 2.48043 1073 ft 137 kts 86°
2026-05-08 20:42 49.02288 2.49510 849 ft 135 kts 87°
2026-05-08 20:43 49.02374 2.50867 652 ft 126 kts 83°
2026-05-08 20:43 49.02463 2.52160 460 ft 117 kts 83°
2026-05-08 20:43 49.02516 2.53371 364 ft 110 kts 84°
2026-05-08 20:43 49.02577 2.54405 364 ft 87 kts 85°
2026-05-08 20:44 49.02623 2.55239 369 ft 71 kts 85°
2026-05-08 20:44 49.02597 2.55859 365 ft 29 kts 127°
2026-05-08 20:44 49.02488 2.55947 364 ft 13 kts 174°
2026-05-08 20:44 49.02446 2.55953 363 ft 0 kts 175°
2026-05-08 20:45 49.02445 2.55953 363 ft 1 kts 175°
2026-05-08 20:45 49.02382 2.55961 363 ft 11 kts 175°
2026-05-08 20:45 49.02291 2.55973 366 ft 16 kts 175°
2026-05-08 20:46 49.02188 2.55984 361 ft 0 kts 176°
2026-05-08 20:47 49.02168 2.55986 364 ft 6 kts 175°
2026-05-08 20:47 49.02116 2.56030 364 ft 11 kts 129°
2026-05-08 20:47 49.02099 2.56158 365 ft 14 kts 88°
2026-05-08 20:47 49.02062 2.56315 369 ft 18 kts 127°
2026-05-08 20:48 49.02027 2.56502 366 ft 19 kts 83°
2026-05-08 20:48 49.02040 2.56717 364 ft 22 kts 84°
2026-05-08 20:48 49.02051 2.56956 362 ft 23 kts 86°
2026-05-08 20:48 49.02062 2.57214 367 ft 26 kts 86°
2026-05-08 20:49 49.02076 2.57495 368 ft 27 kts 81°
2026-05-08 20:49 49.02081 2.57789 363 ft 28 kts 102°
2026-05-08 20:49 49.01973 2.58044 366 ft 30 kts 144°
2026-05-08 20:49 49.01769 2.58134 367 ft 32 kts 175°
2026-05-08 20:50 49.01554 2.58160 361 ft 31 kts 175°
2026-05-08 20:50 49.01348 2.58185 367 ft 21 kts 175°
2026-05-08 20:50 49.01312 2.58189 366 ft 0 kts 175°
2026-05-08 20:52 49.01311 2.58189 366 ft 1 kts 175°
2026-05-08 20:52 49.01295 2.58191 365 ft 5 kts 175°
2026-05-08 20:52 49.01239 2.58199 366 ft 10 kts 175°
2026-05-08 20:52 49.01154 2.58209 367 ft 14 kts 175°
2026-05-08 20:53 49.01041 2.58224 361 ft 18 kts 175°
2026-05-08 20:53 49.00907 2.58248 365 ft 21 kts 173°
2026-05-08 20:53 49.00833 2.58378 361 ft 17 kts 89°
2026-05-08 20:53 49.00839 2.58509 367 ft 0 kts 86°
2026-05-08 20:55 49.00840 2.58537 367 ft 6 kts 86°
2026-05-08 20:55 49.00838 2.58626 367 ft 11 kts 107°
2026-05-08 20:55 49.00767 2.58691 364 ft 15 kts 169°
2026-05-08 20:56 49.00706 2.58690 366 ft 4 kts 213°
2026-05-08 20:56 49.00696 2.58650 366 ft 6 kts 255°
2026-05-08 20:56 49.00692 2.58582 366 ft 3 kts 266°
2026-05-08 20:56 49.00691 2.58562 366 ft 0 kts 266°